When you browse on this site, cookies collect data to enhance your experience and personalize the content and advertising you see.
Visit our Privacy Policy to learn more. By continuing to use the site, you agree to this use of cookies and data.
  • In Hungary
  • List of Countries
  • For 7 days
  • Water Temperature
  • Weather Map
  • News
  • Weather Widgets
  • user-avatar
    Login

    Hourly Weather Aligarh

    Today, 25 May, Monday

    Time Temperature Precipitation Wind Pressure Humidity
    00:00 +38°C° 0 mm 3 mps 734 mmHg 11%
    01:00 +38°C° 0 mm 3 mps 733 mmHg 12%
    02:00 +37°C° 0 mm 3 mps 733 mmHg 13%
    03:00 +37°C° 0 mm 3 mps 733 mmHg 14%
    04:00 +36°C° 0 mm 3 mps 733 mmHg 15%
    05:00 +35°C° 0 mm 2 mps 733 mmHg 16%
    06:00 +38°C° 0 mm 3 mps 734 mmHg 14%
    07:00 +41°C° 0 mm 4 mps 735 mmHg 13%
    08:00 +45°C° 0 mm 5 mps 735 mmHg 11%
    09:00 +47°C° 0 mm 5 mps 735 mmHg 10%
    10:00 +49°C° 0 mm 6 mps 735 mmHg 8%
    11:00 +51°C° 0 mm 6 mps 735 mmHg 7%
    12:00 +52°C° 0 mm 6 mps 734 mmHg 6%
    13:00 +52°C° 0 mm 7 mps 734 mmHg 6%
    14:00 +52°C° 0 mm 7 mps 733 mmHg 6%
    15:00 +52°C° 0 mm 7 mps 732 mmHg 6%
    16:00 +51°C° 0 mm 7 mps 732 mmHg 6%
    17:00 +51°C° 0 mm 7 mps 731 mmHg 6%
    18:00 +48°C° 0 mm 6 mps 732 mmHg 7%
    19:00 +46°C° 0 mm 5 mps 732 mmHg 8%
    20:00 +44°C° 0 mm 4 mps 732 mmHg 8%
    21:00 +43°C° 0 mm 4 mps 732 mmHg 9%
    22:00 +42°C° 0 mm 4 mps 732 mmHg 9%
    23:00 +40°C° 0 mm 3 mps 732 mmHg 9%

    Tomorrow, 26 May, Tuesday

    Time Temperature Precipitation Wind Pressure Humidity
    00:00 +39°C° 0 mm 3 mps 732 mmHg 10%
    01:00 +38°C° 0 mm 2 mps 732 mmHg 11%
    02:00 +37°C° 0 mm 2 mps 731 mmHg 12%
    03:00 +37°C° 0 mm 3 mps 731 mmHg 13%
    04:00 +37°C° 0 mm 4 mps 732 mmHg 14%
    05:00 +37°C° 0 mm 5 mps 732 mmHg 15%
    06:00 +40°C° 0 mm 6 mps 732 mmHg 15%
    07:00 +42°C° 0 mm 6 mps 733 mmHg 16%
    08:00 +45°C° 0 mm 7 mps 734 mmHg 16%
    09:00 +47°C° 0 mm 7 mps 733 mmHg 13%
    10:00 +50°C° 0 mm 7 mps 733 mmHg 10%
    11:00 +54°C° 0 mm 8 mps 733 mmHg 7%
    12:00 +54°C° 0 mm 8 mps 732 mmHg 6%
    13:00 +54°C° 0 mm 8 mps 732 mmHg 6%
    14:00 +55°C° 0 mm 8 mps 731 mmHg 5%
    15:00 +54°C° 0 mm 8 mps 730 mmHg 5%
    16:00 +53°C° 0 mm 7 mps 730 mmHg 5%
    17:00 +52°C° 0 mm 7 mps 729 mmHg 5%
    18:00 +49°C° 0 mm 6 mps 730 mmHg 6%
    19:00 +47°C° 0 mm 4 mps 730 mmHg 6%
    20:00 +43°C° 0 mm 3 mps 731 mmHg 7%
    21:00 +43°C° 0 mm 3 mps 731 mmHg 7%
    22:00 +42°C° 0 mm 3 mps 731 mmHg 7%
    23:00 +40°C° 0 mm 3 mps 731 mmHg 7%

    Day after tomorrow, 27 May, Wednesday

    Time Temperature Precipitation Wind Pressure Humidity
    00:00 +40°C° 0 mm 4 mps 730 mmHg 8%
    01:00 +38°C° 0 mm 4 mps 730 mmHg 8%
    02:00 +38°C° 0 mm 4 mps 730 mmHg 8%
    03:00 +37°C° 0 mm 4 mps 730 mmHg 11%
    04:00 +36°C° 0 mm 3 mps 730 mmHg 14%
    05:00 +35°C° 0 mm 3 mps 731 mmHg 17%
    06:00 +38°C° 0 mm 4 mps 731 mmHg 18%
    07:00 +41°C° 0 mm 5 mps 732 mmHg 19%
    08:00 +45°C° 0 mm 6 mps 733 mmHg 20%
    09:00 +47°C° 0 mm 6 mps 732 mmHg 16%
    10:00 +49°C° 0 mm 6 mps 732 mmHg 12%
    11:00 +53°C° 0 mm 6 mps 732 mmHg 7%
    12:00 +53°C° 0 mm 6 mps 731 mmHg 6%
    13:00 +54°C° 0 mm 6 mps 731 mmHg 5%
    14:00 +55°C° 0 mm 7 mps 730 mmHg 4%
    15:00 +53°C° 0 mm 7 mps 729 mmHg 4%
    16:00 +53°C° 0 mm 7 mps 729 mmHg 4%
    17:00 +52°C° 0 mm 7 mps 728 mmHg 4%
    18:00 +49°C° 0 mm 5 mps 729 mmHg 5%
    19:00 +45°C° 0 mm 4 mps 729 mmHg 6%
    20:00 +42°C° 0 mm 2 mps 729 mmHg 7%
    21:00 +41°C° 0 mm 2 mps 730 mmHg 8%
    22:00 +40°C° 0 mm 2 mps 730 mmHg 9%
    23:00 +40°C° 0 mm 2 mps 730 mmHg 10%

    28 May, Thursday

    Time Temperature Precipitation Wind Pressure Humidity
    00:00 +39°C° 0 mm 3 mps 730 mmHg 13%
    01:00 +38°C° 0 mm 3 mps 730 mmHg 15%
    02:00 +37°C° 0 mm 4 mps 730 mmHg 18%
    03:00 +36°C° 0 mm 3 mps 730 mmHg 21%
    04:00 +35°C° 0 mm 3 mps 730 mmHg 24%
    05:00 +34°C° 0 mm 3 mps 730 mmHg 27%
    06:00 +36°C° 0 mm 3 mps 731 mmHg 26%
    07:00 +38°C° 0 mm 3 mps 732 mmHg 25%
    08:00 +40°C° 0 mm 3 mps 733 mmHg 25%
    09:00 +43°C° 0 mm 3 mps 733 mmHg 23%
    10:00 +44°C° 0 mm 3 mps 732 mmHg 20%
    11:00 +46°C° 0 mm 3 mps 732 mmHg 18%
    12:00 +47°C° 0 mm 3 mps 731 mmHg 15%
    13:00 +49°C° 0 mm 4 mps 731 mmHg 12%
    14:00 +50°C° 0 mm 4 mps 730 mmHg 10%
    15:00 +50°C° 0 mm 4 mps 729 mmHg 9%
    16:00 +50°C° 0 mm 5 mps 729 mmHg 8%
    17:00 +50°C° 0 mm 5 mps 728 mmHg 7%
    18:00 +48°C° 0 mm 4 mps 729 mmHg 8%
    19:00 +45°C° 0 mm 3 mps 729 mmHg 9%
    20:00 +41°C° 0 mm 2 mps 730 mmHg 10%
    21:00 +39°C° 0 mm 3 mps 731 mmHg 16%
    22:00 +37°C° 0 mm 5 mps 731 mmHg 23%
    23:00 +35°C° 0 mm 6 mps 732 mmHg 29%

    29 May, Friday

    Time Temperature Precipitation Wind Pressure Humidity
    00:00 +34°C° 0 mm 5 mps 732 mmHg 31%
    01:00 +33°C° 0 mm 4 mps 732 mmHg 33%
    02:00 +33°C° 0 mm 4 mps 732 mmHg 35%
    03:00 +32°C° 0 mm 4 mps 733 mmHg 37%
    04:00 +32°C° 0 mm 4 mps 733 mmHg 40%
    05:00 +32°C° 0 mm 4 mps 733 mmHg 42%
    06:00 +33°C° 0 mm 4 mps 734 mmHg 41%
    07:00 +35°C° 0 mm 4 mps 734 mmHg 40%
    08:00 +36°C° 0 mm 4 mps 735 mmHg 39%
    09:00 +39°C° 0 mm 3 mps 735 mmHg 32%
    10:00 +42°C° 0 mm 2 mps 735 mmHg 25%
    11:00 +44°C° 0 mm 1 mps 735 mmHg 18%
    12:00 +45°C° 0 mm 1 mps 734 mmHg 15%
    13:00 +47°C° 0 mm 2 mps 734 mmHg 13%
    14:00 +48°C° 0 mm 2 mps 733 mmHg 10%
    15:00 +48°C° 0 mm 3 mps 732 mmHg 9%
    16:00 +49°C° 0 mm 4 mps 732 mmHg 9%
    17:00 +49°C° 0 mm 4 mps 731 mmHg 8%
    18:00 +47°C° 0 mm 4 mps 732 mmHg 10%
    19:00 +44°C° 0 mm 4 mps 732 mmHg 11%
    20:00 +42°C° 0 mm 3 mps 732 mmHg 13%
    21:00 +40°C° 0 mm 3 mps 733 mmHg 13%
    22:00 +40°C° 0 mm 3 mps 733 mmHg 14%
    23:00 +39°C° 0 mm 3 mps 734 mmHg 15%

    30 May, Saturday

    Time Temperature Precipitation Wind Pressure Humidity
    00:00 +38°C° 0 mm 3 mps 734 mmHg 19%
    01:00 +37°C° 0 mm 3 mps 734 mmHg 23%
    02:00 +36°C° 0 mm 3 mps 734 mmHg 27%
    03:00 +36°C° 0 mm 3 mps 734 mmHg 28%
    04:00 +35°C° 0 mm 3 mps 734 mmHg 29%
    05:00 +35°C° 0 mm 2 mps 735 mmHg 30%
    06:00 +37°C° 0.1 mm 3 mps 735 mmHg 27%
    07:00 +40°C° 0.1 mm 4 mps 736 mmHg 24%
    08:00 +42°C° 0.1 mm 5 mps 737 mmHg 20%
    09:00 +43°C° 0 mm 4 mps 736 mmHg 19%
    10:00 +44°C° 0 mm 3 mps 736 mmHg 18%
    11:00 +45°C° 0 mm 1 mps 736 mmHg 17%
    12:00 +46°C° 0 mm 2 mps 736 mmHg 16%
    13:00 +46°C° 0 mm 3 mps 735 mmHg 14%
    14:00 +48°C° 0 mm 4 mps 734 mmHg 13%
    15:00 +47°C° 0 mm 4 mps 734 mmHg 12%
    16:00 +47°C° 0 mm 5 mps 733 mmHg 11%
    17:00 +47°C° 0 mm 5 mps 733 mmHg 10%
    18:00 +44°C° 0 mm 4 mps 733 mmHg 12%
    19:00 +43°C° 0 mm 3 mps 733 mmHg 14%
    20:00 +40°C° 0 mm 1 mps 733 mmHg 15%
    21:00 +38°C° 0 mm 2 mps 734 mmHg 22%
    22:00 +36°C° 0 mm 3 mps 734 mmHg 29%
    23:00 +35°C° 0 mm 5 mps 735 mmHg 36%
    Show more